F5- Agency Registration Information
Vendor Registration Portal

Sl. No. Request No Request Date Registration No Registration Reason Vendor Code Vendor Name Approval Flags Approval Date Rejected Reason
1 REQ/2023/364 2023-08-14 REG/2023/49 0000000382 B S ENTERPRISE Accepted 2023-08-23
2 REQ/2023/798 2023-08-15 REG/2023/503 0000000407 AVIK KUMAR GHOSH Accepted 2023-09-18
3 REQ/2023/802 2023-08-15 REG/2023/505 0000000155 BANI ENGINEERING CO. Accepted 2023-08-23
4 REQ/2023/630 2023-08-14 REG/2023/431 Request for Vendor code 0000000324 Chakraborty Suppliers & Construction Accepted 2023-09-08
5 REQ/2023/1182 2023-08-16 REG/2023/577 Request for vendor registration 0000000408 BUDDHADEV MONDAL Accepted 2023-09-18
6 REQ/2023/604 2023-08-14 REG/2023/421 request for vendor code 0000000117 Santu Ghosh Accepted 2023-08-23
7 REQ/2023/1509 2023-08-16 REG/2023/292 0000000229 N.H. ENTERPRISE Accepted 2023-09-26
8 REQ/2023/1635 2023-08-16 REG/2023/782 request for pending approval 0000000409 ROY ASSOCIATES Accepted 2023-09-18
9 REQ/2023/1412 2023-08-16 REG/2023/701 Request for pending approval 0000000410 REAL TIME Accepted 2023-09-18
10 REQ/2023/1537 2023-08-16 REG/2023/750 Request for vendor code 0000000335 M/s B K Enterprise Accepted 2023-09-15
11 REQ/2023/1472 2023-08-16 REG/2023/712 Request for Pending Approval 0000000411 Ganguly Enterprise Accepted 2023-09-18
12 REQ/2023/1976 2023-08-17 REG/2023/279 Request for pending approval 0000000153 H.I. ENTERPRISE Accepted 2023-09-14
13 REQ/2023/2328 2023-08-17 REG/2023/1109 Working Agency 0000000294 A.P POWER & CONCRETE Accepted 2023-08-23
14 REQ/2023/2438 2023-08-17 REG/2023/1147 Request for pending approval 0000000412 KESHOB ENTERPRISE Accepted 2023-09-18
15 REQ/2023/2454 2023-08-17 REG/2023/1157 Request for approval 0000000415 M/S COSMOPOLITON TRADERS Accepted 2023-09-21
16 REQ/2023/2006 2023-08-17 REG/2023/288 Request for approval 0000000416 RAKESH ENTERPRISE Accepted 2023-09-21
17 REQ/2023/2017 2023-08-17 REG/2023/288 Request for approval RAKESH ENTERPRISE Rejected 2023-09-21 same data
18 REQ/2023/2062 2023-08-17 REG/2023/981 Request for pending approval 0000000299 KINGS & CO. Accepted 2023-09-14
19 REQ/2023/2165 2023-08-17 REG/2023/1046 Request for pending approval 0000000094 MONDAL ENTERPRISE Accepted 2023-08-23
20 REQ/2023/2249 2023-08-17 REG/2023/1081 Request for pending approval 0000000206 M/S R.K.ENTERPRISE Accepted 2023-09-08
21 REQ/2023/2152 2023-08-17 REG/2023/1033 Working Agency 0000000383 R.UNIQUE CONSTRUCTION Accepted 2023-09-22
22 REQ/2023/2280 2023-08-17 REG/2023/1092 Request for pending approval. 0000000413 THE TOWER CONSTRUCTION Accepted 2023-09-18
23 REQ/2023/2687 2023-08-17 REG/2023/544 Request for Verdor code 0000000099 CHANCHAL ENTERPRISE & CO Accepted 2023-09-14
24 REQ/2023/2544 2023-08-17 REG/2023/1189 0000000365 TOJO ENTERPRISE Accepted 2023-08-24
25 REQ/2023/2539 2023-08-17 REG/2023/1095 0000000353 DIPAYAN DEY Accepted 2023-08-24
26 REQ/2023/2704 2023-08-17 REG/2023/410 PLEASE APPROVED ME 0000000085 DEBAPRASAD MONDAL Accepted 2023-09-05
27 REQ/2023/3047 2023-08-18 REG/2023/1393 Request for vendor code 0000000417 HR Solar Solution Pvt. Ltd. Accepted 2023-09-21
28 REQ/2023/3069 2023-08-18 REG/2023/98 Request for pending approval 0000000414 B M ENTERPRISE Accepted 2023-09-18
29 REQ/2023/2860 2023-08-18 REG/2023/1027 For submission of bill 0000000248 M/S JHARNA ENTERPRISE Accepted 2023-09-14
30 REQ/2023/2565 2023-08-17 REG/2023/390 Request for vendor code 0000000425 ROY CHOWDHURY CONSTRUCTION Accepted 2023-09-22
31 REQ/2023/3114 2023-08-18 REG/2023/99 Request for pending approval 0000000418 SUMANA ENTERPRISE Accepted 2023-09-21
32 REQ/2023/3561 2023-08-18 REG/2023/1453 SONIA ENTERPRISE Rejected 2023-09-26 wrong data
33 REQ/2023/3574 2023-08-18 REG/2023/1443 SANAM ENTERPRISE Rejected 2023-09-26 wrong data
34 REQ/2023/3585 2023-08-18 REG/2023/1430 ARSHAD ALI MOLLA Rejected 2023-09-26 wrong data
35 REQ/2023/3594 2023-08-18 REG/2023/403 Request for vendor code 0000000197 M/S. DAS & CO. Accepted 2023-08-23
36 REQ/2023/3529 2023-08-18 REG/2023/1480 0000000419 Munia Enterprise Accepted 2023-09-21
37 REQ/2023/3551 2023-08-18 REG/2023/1570 Request for vendor code 0000000266 A.K.DUTTA & CO. Accepted 2023-09-07
38 REQ/2023/3646 2023-08-18 REG/2023/1609 Request for Pending Approval 0000000247 SUNANDA ENVIROMENTAL INTERNATIONAL PVT. LTD. Accepted 2023-08-24
39 REQ/2023/3376 2023-08-18 REG/2023/1468 0000000308 M/S. L.P. CONSTRUCTION Accepted 2023-09-14
40 REQ/2023/3645 2023-08-18 REG/2023/1609 Request for Pending Approval SUNANDA ENVIROMENTAL INTERNATIONAL PVT. LTD. Rejected 2023-09-14 same data
41 REQ/2023/3215 2023-08-18 REG/2023/41 Request for Pending approval 0000000420 Satyabrata Chakarborty Accepted 2023-09-21
42 REQ/2023/3381 2023-08-18 REG/2023/96 Request for pending approval 0000000421 M/S RANA ENTERPRISE Accepted 2023-09-21
43 REQ/2023/3391 2023-08-18 REG/2023/1468 M/S. L.P. CONSTRUCTION Rejected 2023-09-14 same data
44 REQ/2023/3687 2023-08-18 REG/2023/1625 0000000422 M/S. GOUTAM ROY Accepted 2023-09-21
45 REQ/2023/3157 2023-08-18 REG/2023/1427 Request for Pending Approval 0000000426 BISWAS CONSTRUCTION Accepted 2023-09-26
46 REQ/2023/3390 2023-08-18 REG/2023/1468 M/S. L.P. CONSTRUCTION Rejected 2023-09-14 same data
47 REQ/2023/4202 2023-08-21 REG/2023/1868 Request For Vendor Code 0000000369 AMAL DUTTA ROY Accepted 2023-09-14
48 REQ/2023/4346 2023-08-21 REG/2023/1924 Working Agency 0000000243 PRAGATI CONSTRUCTION & CO Accepted 2023-08-24
49 REQ/2023/4239 2023-08-21 REG/2023/1880 Request for Pending Approval 0000000427 PRIYA CONSTRUCTION Accepted 2023-09-26
50 REQ/2023/4045 2023-08-19 REG/2023/1808 FOR BILL SUBMISSION 0000000360 M/S ASHA ENGINEERING Accepted 2023-09-14
51 REQ/2023/4050 2023-08-19 REG/2023/1810 0000000428 B. C. PAUL & SONS Accepted 2023-09-26
52 REQ/2023/4192 2023-08-21 REG/2023/1808 M/S ASHA ENGINEERING Rejected 2023-09-14 same data
53 REQ/2023/4273 2023-08-21 REG/2023/1808 M/S ASHA ENGINEERING Rejected 2023-09-26 same data
54 REQ/2023/4731 2023-08-22 REG/2023/194 0000000027 BHARATI CHEMICAL & SCIENTIFIC WORKS Accepted 2023-08-24
55 REQ/2023/4965 2023-08-22 REG/2023/2103 Please approve Om Enterprise Rejected 2023-08-22 wrong credentials
56 REQ/2023/4980 2023-08-22 REG/2023/2103 Please approve 0000000305 Om Enterprise Accepted 2023-08-22
57 REQ/2023/4989 2023-08-22 REG/2023/2101 Please approve 0000000163 Premananda Roy Biswas Accepted 2023-08-22
58 REQ/2023/4990 2023-08-22 REG/2023/2100 please approve Mahalaxmi construction Rejected 2023-09-14 same data
59 REQ/2023/5011 2023-08-22 REG/2023/873 Please approve 0000000189 MAHALAXMI CONSTRUCTION Accepted 2023-08-22
60 REQ/2023/4785 2023-08-22 REG/2023/794 Working Agency of the Division 0000000252 M/S S S ENTERPRISE Accepted 2023-08-31
61 REQ/2023/4361 2023-08-21 REG/2023/1927 Working Agency 0000000400 JUPITER CONSTRUCTION Accepted 2023-09-08
62 REQ/2023/4581 2023-08-21 REG/2023/515 Request for vendor code 0000000429 Hydrotech Associates Accepted 2023-09-26
63 REQ/2023/4680 2023-08-22 REG/2023/56 Request for Vender Code 0000000187 R K MANDAL & CO. Accepted 2023-08-22
64 REQ/2023/4886 2023-08-22 REG/2023/2078 Sending for approval. 0000000430 A.K.C. SUPPLY & CONSTRUCTION Accepted 2023-09-26
65 REQ/2023/5481 2023-08-23 REG/2023/130 please approve. 0000000307 M/S Datta Enterprise Accepted 2023-08-23
66 REQ/2023/5489 2023-08-23 REG/2023/378 Bill Submission 0000000344 FIDERE MARINE SERVICES PVT. LTD. Accepted 2023-09-13
67 REQ/2023/5110 2023-08-22 REG/2023/2129 APPROVAL REQUIRED 0000000227 DIPA CHHETRI Accepted 2023-08-23
68 REQ/2023/5256 2023-08-23 REG/2023/873 MAHALAXMI CONSTRUCTION Rejected 2023-09-26 same data
69 REQ/2023/5293 2023-08-23 REG/2023/2190 Please approve our request for the vendor registration 0000000276 MERIT SECURITY SERVICE Accepted 2023-09-26
70 REQ/2023/5429 2023-08-23 REG/2023/2226 Sending for approval. 0000000226 M/S. SHUBHA ENTERPRISE Accepted 2023-09-14
71 REQ/2023/5032 2023-08-22 REG/2023/2114 Approve 0000000306 CHOWDHURY CONSTRUCTION. Accepted 2023-08-22
72 REQ/2023/5295 2023-08-23 REG/2023/2195 Please approve our request for the vendor registration 0000000138 M/s CHANDIMATA Accepted 2023-08-23
73 REQ/2023/5325 2023-08-23 REG/2023/2185 Please approve our request for the vendor registration 0000000202 M/S CHANDIMATA CONSTRUCTION Accepted 2023-08-23
74 REQ/2023/5089 2023-08-22 REG/2023/2123 Please approve. 0000000398 B.S. ENTERPRISE Accepted 2023-09-05
75 REQ/2023/5342 2023-08-23 REG/2023/2199 Sending for approval. 0000000115 SUDHAMAY MAJUMDAR Accepted 2023-09-14
76 REQ/2023/5137 2023-08-22 REG/2023/1988 0000000013 DIGITEK SOLUTIONS Accepted 2023-08-23
77 REQ/2023/5361 2023-08-23 REG/2023/2210 Sending for approval. 0000000431 M/S SAIN ENTERPRISE Accepted 2023-09-26
78 REQ/2023/5463 2023-08-23 REG/2023/391 Request For Vendor Code 0000000081 EFFLUENT AND WATERTREATMENT ENGINEERS PVT. LTD Accepted 2023-09-29
79 REQ/2023/5885 2023-08-24 REG/2023/362 Sending for approval. 0000000137 Supriti Enterprise Accepted 2023-09-14
80 REQ/2023/6040 2023-08-24 REG/2023/2451 0000000432 UTSA ENTERPRISE Accepted 2023-09-26
81 REQ/2023/6056 2023-08-24 REG/2023/1678 Vendor Code 0000000293 BALAJI UDDYOG Accepted 2023-09-13
82 REQ/2023/5690 2023-08-23 REG/2023/2332 0000000162 THREE MAA ENTERPRISE Accepted 2023-09-26
83 REQ/2023/5698 2023-08-23 REG/2023/2328 0000000221 ROY BISWAS CONSTRUCTION Accepted 2023-09-26
84 REQ/2023/5658 2023-08-23 REG/2023/2312 FOR SUBMISSION OF BILL 0000000433 TANMOY ROY CHOWDHURY Accepted 2023-09-26
85 REQ/2023/5980 2023-08-24 REG/2023/2114 Pls Approve CHOWDHURY CONSTRUCTION. Rejected 2023-09-26 same data
86 REQ/2023/6018 2023-08-24 REG/2023/1046 Pls Approve MONDAL ENTERPRISE Rejected 2023-08-24 same data
87 REQ/2023/6068 2023-08-24 REG/2023/2459 Request For Vendor Code 0000000351 M/S DIPAK ENTERPRISE Accepted 2023-09-14
88 REQ/2023/6167 2023-08-25 REG/2023/2491 0000000185 PHOENIX INFRASTRUCTURE Accepted 2023-09-14
89 REQ/2023/6184 2023-08-25 REG/2023/2146 0000000434 M.DHARA & BROTHERS Accepted 2023-09-26
90 REQ/2023/6075 2023-08-24 REG/2023/2343 request for vendor code 0000000149 S.P. CONSTRUCTION Accepted 2023-08-29
91 REQ/2023/6280 2023-08-25 REG/2023/1943 0000000075 JDJ ENTERPRISE (A UNIT OF JDJ TRADERS PVT LTD) Accepted 2023-09-27
92 REQ/2023/5960 2023-08-24 REG/2023/2171 pls Approve 0000000238 P & S ASSOCIATES Accepted 2023-08-24
93 REQ/2023/5963 2023-08-24 REG/2023/2426 Working Agency M.R.CONSTRUCTION Rejected 2023-09-14 same data
94 REQ/2023/6318 2023-08-25 REG/2023/2542 0000000156 ORIENT CONSTRUCTION Accepted 2023-09-14
95 REQ/2023/6819 2023-08-28 REG/2023/493 WORKING AGENCY UNDER PHE DTE 0000000023 PUSPA ENTERPRISE Accepted 2023-09-14
96 REQ/2023/6756 2023-08-28 REG/2023/2672 0000000257 MS KRISHNA MONDAL Accepted 2023-09-14
97 REQ/2023/6870 2023-08-29 REG/2023/2706 0000000435 BIMALA NURSERY Accepted 2023-09-26
98 REQ/2023/6884 2023-08-29 REG/2023/2701 Working Agency 0000000332 SURAKHSA INVESTIGATION SECURITY AGENCY Accepted 2023-09-29
99 REQ/2023/6492 2023-08-27 REG/2023/2594 FOR SUBMISSION OF BILL 0000000436 B.K.ROYCHOWDHURY Accepted 2023-09-26
100 REQ/2023/6690 2023-08-28 REG/2023/2651 0000000123 AZAD ENTERPRISE Accepted 2023-09-14
101 REQ/2023/6453 2023-08-26 REG/2023/2588 Working Agency of the Division 0000000240 SUNNY CONSTRUCTION Accepted 2023-09-26
102 REQ/2023/6703 2023-08-28 REG/2023/2655 REQUEST FOR AGENCY APPROVAL 0000000340 ACME CONSTRUCTION Accepted 2023-09-11
103 REQ/2023/6728 2023-08-28 REG/2023/2661 0000000437 MOTI RAHAMAN Accepted 2023-09-27
104 REQ/2023/6650 2023-08-28 REG/2023/2628 Bill Process 0000000255 Semaphore Computers Pvt. Ltd Accepted 2023-08-28
105 REQ/2023/6666 2023-08-28 REG/2023/2638 0000000297 GHOSH CONSTRUCTION Accepted 2023-08-29
106 REQ/2023/6330 2023-08-25 REG/2023/62 0000000157 SRIJAN ECOLOGICAL UPLIFTMENT PVT. LTD. Accepted 2023-09-27
107 REQ/2023/6332 2023-08-25 REG/2023/1022 0000000165 UMWELT ENGINEER PRIVATE LIMITED Accepted 2023-09-27
108 REQ/2023/6511 2023-08-27 REG/2023/189 Request for agency enrollment 0000000190 M/S NIRMAN CONSTRUCTION Accepted 2023-09-14
109 REQ/2023/6512 2023-08-27 REG/2023/201 Request for agency enrollment 0000000161 S K ENTERPRISE Accepted 2023-09-14
110 REQ/2023/6513 2023-08-27 REG/2023/198 Request for agency enrollment 0000000269 UNIFIED ENGINEERS' CO-OPERATIVE SOCIETY LTD Accepted 2023-09-14
111 REQ/2023/6555 2023-08-28 REG/2023/1337 Onkar Enterprise Sending for approval 0000000438 Onkar Enterprise (Prolay Ghosh) Accepted 2023-09-27
112 REQ/2023/6467 2023-08-27 REG/2023/2592 Request for vendor approval 0000000439 DIGITEK Accepted 2023-09-27
113 REQ/2023/7126 2023-08-29 REG/2023/2784 0000000350 M/S. R. M. CONSTRUCTION Accepted 2023-09-27
114 REQ/2023/7268 2023-08-30 REG/2023/62 SRIJAN ECOLOGICAL UPLIFTMENT PVT. LTD. Rejected 2023-09-27 same data
115 REQ/2023/7550 2023-08-31 REG/2023/2536 Plz Approve 0000000397 KONAR INFRASTRUCTURE Accepted 2023-08-31
116 REQ/2023/7585 2023-08-31 REG/2023/2530 0000000317 GB CONSTRUCTION Accepted 2023-09-14
117 REQ/2023/7594 2023-08-31 REG/2023/2532 0000000333 GBC INFRASTRUCTURE PRIVATE LIMITED Accepted 2023-09-14
118 REQ/2023/7249 2023-08-30 REG/2023/1022 UMWELT ENGINEER PRIVATE LIMITED Rejected 2023-09-27 same data
119 REQ/2023/7003 2023-08-29 REG/2023/1098 Please approve. 0000000233 BANERJEE CONSTRUCTION Accepted 2023-08-29
120 REQ/2023/7012 2023-08-29 REG/2023/2756 0000000440 ALOM POLY EXTRUSIONS LTD Accepted 2023-09-27
121 REQ/2023/7573 2023-08-31 REG/2023/2897 0000000396 M/S VAISHNO CONSTRUCTION Accepted 2023-09-08
122 REQ/2023/7613 2023-08-31 REG/2023/2908 0000000116 BALAJEE ENTERPRISES Accepted 2023-09-08
123 REQ/2023/6967 2023-08-29 REG/2023/2746 0000000231 S R ENTERPRISE Accepted 2023-09-15
124 REQ/2023/7064 2023-08-29 REG/2023/559 please approve. 0000000216 MONDAL ENTERPRISE Accepted 2023-08-29
125 REQ/2023/7069 2023-08-29 REG/2023/2760 please approve 0000000108 M/S B. B. ENGINEERING Accepted 2023-08-29
126 REQ/2023/7118 2023-08-29 REG/2023/2781 0000000185 M/S. PHOENIX INFRASTRUCTURE Accepted 2023-09-27
127 REQ/2023/7235 2023-08-30 REG/2023/2809 0000000287 UNICODE DIGITECH Accepted 2023-09-14
128 REQ/2023/7347 2023-08-31 REG/2023/2845 please approve. 0000000193 S. S. CONSULTANCY & CONSTRUCTION Accepted 2023-08-31
129 REQ/2023/7370 2023-08-31 REG/2023/1077 0000000441 Unique Allied Security Services Accepted 2023-09-27
130 REQ/2023/6978 2023-08-29 REG/2023/2747 0000000352 SOFIQUL ISLAM Accepted 2023-09-14
131 REQ/2023/7092 2023-08-29 REG/2023/2766 BILL PROCESS 0000000316 Applet Projects & Engineering Pvt. Ltd. Accepted 2023-09-27
132 REQ/2023/7359 2023-08-31 REG/2023/2849 Working Agency 0000000373 M/S. PAL SECURITY SERVICES Accepted 2023-09-13
133 REQ/2023/7386 2023-08-31 REG/2023/2860 0000000402 B.M. TRADERS Accepted 2023-09-27
134 REQ/2023/6945 2023-08-29 REG/2023/2739 0000000200 SAKTI ENTERPRISE Accepted 2023-09-15
135 REQ/2023/7179 2023-08-30 REG/2023/2798 APPROVAL REQUESTED 0000000159 KUNDU CONSTRUCTION CO. Accepted 2023-09-27
136 REQ/2023/7432 2023-08-31 REG/2023/2873 Bill Process 0000000256 Semaphore Technologies Pvt. Ltd Accepted 2023-09-27
137 REQ/2023/7445 2023-08-31 REG/2023/1943 JDJ ENTERPRISE (A UNIT OF JDJ TRADERS PVT LTD) Rejected 2023-09-27 same data
138 REQ/2023/7071 2023-08-29 REG/2023/2761 Bill Process 0000000169 ALTAVISTA TECH SOLUTIONS Accepted 2023-09-27
139 REQ/2023/7468 2023-08-31 REG/2023/2875 Please approve. 0000000327 MODERN CONSTRUCTIONS Accepted 2023-08-31
140 REQ/2023/7478 2023-08-31 REG/2023/2876 0000000448 BEAUTY CONSTRUCTION & NURSERY Accepted 2023-09-29
141 REQ/2023/7748 2023-09-01 REG/2023/2966 0000000370 S & P ENTERPRISE Accepted 2023-09-08
142 REQ/2023/7944 2023-09-05 REG/2023/3020 0000000144 ALOK ENTERPRISE (A UNIT OF SAKET TREXIM PVT. LTD.) Accepted 2023-09-29
143 REQ/2023/7697 2023-09-01 REG/2023/1457 pls Approve 0000000177 G. S CONSTRUCTION & CO Accepted 2023-09-01
144 REQ/2023/8112 2023-09-08 REG/2023/3067 Approve 0000000331 A 8T CONSTRUCTION Accepted 2023-09-08
145 REQ/2023/8159 2023-09-08 REG/2023/3079 0000000442 M/S ABM ENTERPRISE Accepted 2023-09-27
146 REQ/2023/8165 2023-09-08 REG/2023/3081 0000000443 JOTI ENTERPRISE Accepted 2023-09-27
147 REQ/2023/8019 2023-09-06 REG/2023/18 0000000444 Envotech Infra Solution Accepted 2023-09-27
148 REQ/2023/8148 2023-09-08 REG/2023/3076 Approve 0000000345 PALASH ALAM Accepted 2023-09-08
149 REQ/2023/8219 2023-09-11 REG/2023/3092 0000000406 S. S. DAS Accepted 2023-09-11
150 REQ/2023/7899 2023-09-05 REG/2023/18 Envotech Infra Solution Rejected 2023-09-27 same data
151 REQ/2023/8186 2023-09-09 REG/2023/3085 0000000034 GHOSH BROTHERS Accepted 2023-09-14
152 REQ/2023/7731 2023-09-01 REG/2023/2961 0000000445 ASTER CONSULTANCY Accepted 2023-09-27
153 REQ/2023/7786 2023-09-02 REG/2023/2979 Please Approve my vendor registration 0000000291 M/s SUN SECURITY SERVICE Accepted 2023-09-13
154 REQ/2023/8060 2023-09-07 REG/2023/1768 Approve 0000000355 BASHUDEV DUTTA Accepted 2023-09-07
155 REQ/2023/8116 2023-09-08 REG/2023/2482 0000000404 M/S PINKI CONSTRUCTION Accepted 2023-09-08
156 REQ/2023/7874 2023-09-04 REG/2023/1593 REGISTRATION 0000000465 MAHAVIR PUMPS MANUFACTURING PRIVATE LIMITED Accepted 2023-11-06
157 REQ/2023/8090 2023-09-07 REG/2023/847 0000000203 Ayush Enterprise Accepted 2023-09-08
158 REQ/2023/8068 2023-09-07 REG/2023/2426 Approve 0000000359 M.R.CONSTRUCTION Accepted 2023-09-07
159 REQ/2023/8118 2023-09-08 REG/2023/1455 0000000405 NIRMAN Accepted 2023-09-08
160 REQ/2023/8121 2023-09-08 REG/2023/2579 0000000363 M/S SANJAY ADHIKARI Accepted 2023-09-08
161 REQ/2023/8132 2023-09-08 REG/2023/3070 0000000446 ADHIKARY CONSTRUCTION Accepted 2023-09-27
162 REQ/2023/8391 2023-09-13 REG/2023/3126 Approve 0000000300 BAKSHI ENTERPRISE Accepted 2023-09-13
163 REQ/2023/8530 2023-09-14 REG/2023/3173 Approve 0000000215 Dynamic Construction Accepted 2023-09-14
164 REQ/2023/8645 2023-09-15 REG/2023/108 Approve 0000000336 M/S PROGATI ENTERPRISE Accepted 2023-09-15
165 REQ/2023/8790 2023-09-16 REG/2023/1195 0000000301 BOSE ENTERPRISE Accepted 2023-09-27
166 REQ/2023/8340 2023-09-12 REG/2023/3106 Approve 0000000102 CONTINENTAL ADVERTISING SERVICES Accepted 2023-09-13
167 REQ/2023/8723 2023-09-16 REG/2023/3185 Interested For Enlistment. 0000000447 ANUKUL CONSTRUCTION Accepted 2023-09-27
168 REQ/2023/8824 2023-09-18 REG/2023/3231 Please approve. 0000000196 AFRINA ENTERPRISE Accepted 2023-09-18
169 REQ/2023/8250 2023-09-11 REG/2023/114 APPROVE 0000000356 M/S RAJPATH CONSTRUCTION Accepted 2023-09-11
170 REQ/2023/8273 2023-09-11 REG/2023/850 Approve 0000000076 M/S Roy Chowdhury & Co Accepted 2023-09-11
171 REQ/2023/8284 2023-09-11 REG/2023/852 Approve 0000000106 Sutapa Enterprise Accepted 2023-09-11
172 REQ/2023/8405 2023-09-13 REG/2023/2894 Approve 0000000262 DEBNATH BROTHERS Accepted 2023-09-13
173 REQ/2023/8289 2023-09-11 REG/2023/3099 Approve 0000000354 SEULI ENTERPRISE Accepted 2023-09-11
174 REQ/2023/8346 2023-09-12 REG/2023/2074 Works 0000000265 CALCON CONSTRUCTIONS Accepted 2023-09-14
175 REQ/2023/8464 2023-09-14 REG/2023/3152 0000000155 BANI ENGINEERING CO. Accepted 2023-09-27
176 REQ/2023/8563 2023-09-14 REG/2023/84 Approve 0000000377 ABDUL ALIM MONDAL Accepted 2023-09-14
177 REQ/2023/8415 2023-09-13 REG/2023/2942 Approve 0000000275 Shoummyodip & co Accepted 2023-09-13
178 REQ/2023/8446 2023-09-13 REG/2023/1519 Approve 0000000184 HORIZEN Accepted 2023-09-13
179 REQ/2023/8513 2023-09-14 REG/2023/3167 Approve 0000000212 JNJ ENGINEERING Accepted 2023-09-14
180 REQ/2023/8519 2023-09-14 REG/2023/3169 Approve 0000000399 SWAPNO ENTERPRISE Accepted 2023-09-14
181 REQ/2023/8577 2023-09-14 REG/2023/3180 Working Agency 0000000219 RAMKRISHNA CHAKRABORTY Accepted 2023-09-29
182 REQ/2023/8435 2023-09-13 REG/2023/3135 Working Agency 0000000292 AT Construction Accepted 2023-09-14
183 REQ/2023/8571 2023-09-14 REG/2023/3179 Working Agency 0000000289 M/S R.K CHAKRABORTY & CO. Accepted 2023-09-29
184 REQ/2023/8635 2023-09-15 REG/2023/3200 Approve DUTTA CONSTRUCTION & CONSULTANCY Pending 2023-09-15
185 REQ/2023/8399 2023-09-13 REG/2023/3131 Approve 0000000198 KAMRULA CONSTRUCTION CO Accepted 2023-09-13
186 REQ/2023/8492 2023-09-14 REG/2023/1233 0000000151 Nikhil Samaddar Accepted 2023-09-14
187 REQ/2023/8633 2023-09-15 REG/2023/3199 Approve 0000000273 GLORY ENGINEERS SYNDICATE Accepted 2023-09-15
188 REQ/2023/8661 2023-09-15 REG/2023/2116 Request for approval 0000000253 PALCON Accepted 2023-09-27
189 REQ/2023/8333 2023-09-12 REG/2023/3103 MONDAL ENTERPRISE Pending 2023-09-12
190 REQ/2023/8394 2023-09-13 REG/2023/3129 Approve 0000000236 K. S. ENTERPRISE Accepted 2023-09-13
191 REQ/2023/8509 2023-09-14 REG/2023/3166 Please approve my vendor registration request 0000000170 M/s CHANDIMATA ELECTRICALS Accepted 2023-09-14
192 REQ/2023/8522 2023-09-14 REG/2023/3171 Approve 0000000259 CHOTTO TULI ART & CRAFT CENTRE Accepted 2023-09-14
193 REQ/2023/9015 2023-09-21 REG/2023/3300 0000000303 Bijoy Construction Accepted 2023-09-29
194 REQ/2023/9362 2023-09-22 REG/2023/3349 0000000296 SUN ENTERPRISE Accepted 2023-09-27
195 REQ/2023/9024 2023-09-21 REG/2023/2222 Request for Vendor Code 0000000449 DIAMOND ENGINEERS CO OP SOCIETY LTD Accepted 2023-09-29
196 REQ/2023/9193 2023-09-21 REG/2023/3318 0000000450 ANJAN INFRASTRUCTURE PVT. LTD. Accepted 2023-09-29
197 REQ/2023/8920 2023-09-20 REG/2023/3261 For Bill Submission. 0000000018 RANJIT KUMAR MANDAL Accepted 2023-09-29
198 REQ/2023/9125 2023-09-21 REG/2023/3313 0000000454 AQUEDUCT PLASTICS PVT LTD Accepted 2023-09-29
199 REQ/2023/9345 2023-09-22 REG/2023/3343 Approve 0000000368 BKB INFRA PROJECTS PVT. LTD. Accepted 2023-09-22
200 REQ/2023/9369 2023-09-22 REG/2023/3350 0000000451 M/S S & P CONSTRUCTION Accepted 2023-09-29
201 REQ/2023/8965 2023-09-20 REG/2023/3275 Request for vendor code 0000000395 SINGHA ROY & CO. Accepted 2023-10-17
202 REQ/2023/9066 2023-09-21 REG/2023/1503 Please Approve Vendor Registration 0000000452 TECH VISION Accepted 2023-09-29
203 REQ/2023/9194 2023-09-21 REG/2023/3318 ANJAN INFRASTRUCTURE PVT. LTD. Rejected 2023-09-29 same data
204 REQ/2023/9307 2023-09-22 REG/2023/3335 0000000423 KAUSHALYA INFRASTRUCTURE DEVELOPMENT CORPORATION LTD Accepted 2023-09-22
205 REQ/2023/9309 2023-09-22 REG/2023/3335 KAUSHALYA INFRASTRUCTURE DEVELOPMENT CORPORATION LTD Rejected 2023-09-29 same data
206 REQ/2023/8945 2023-09-20 REG/2023/1557 Request for Vendor Code 0000000385 SAHA CONSTRUCTION & CO Accepted 2023-09-29
207 REQ/2023/9102 2023-09-21 REG/2023/750 For bill submission. M/s B K Enterprise Rejected 2023-09-29 same data
208 REQ/2023/9184 2023-09-21 REG/2023/1944 REQUEST FOR VENDOR CODE 0000000093 MONDAL PRECISION PRIVATE LIMITED Accepted 2023-09-29
209 REQ/2023/9299 2023-09-22 REG/2023/750 For Bill Submission. M/s B K Enterprise Rejected 2023-09-29 same data
210 REQ/2023/9327 2023-09-22 REG/2023/3338 0000000424 MAHANTI ENGINEERS PVT. LTD Accepted 2023-10-03
211 REQ/2023/9349 2023-09-22 REG/2023/3344 Approve 0000000367 DEL DELTA CONSTRUCTION Accepted 2023-09-22
212 REQ/2023/9793 2023-09-27 REG/2023/3466 Approved 0000000136 FNC CONSTRUCTION AND CO Accepted 2023-09-27
213 REQ/2023/9794 2023-09-27 REG/2023/3467 Approve MEGACON Pending 2023-09-27
214 REQ/2023/9907 2023-09-28 REG/2023/3502 0000000453 PATHIK PABAN NANDI Accepted 2023-09-29
215 REQ/2023/9932 2023-09-28 REG/2023/3504 0000000455 JAI BHARAT COMMERCIAL CORPORATION Accepted 2023-09-29
216 REQ/2023/9764 2023-09-27 REG/2023/948 Request for Vendor Code 0000000456 SANJOY BAKSHI Accepted 2023-09-29
217 REQ/2023/9630 2023-09-26 REG/2023/3412 0000000459 SWASTIK ENTERPRISE Accepted 2023-10-03
218 REQ/2023/9748 2023-09-27 REG/2023/3448 Request for Vendor Code 0000000457 Papan Roy Accepted 2023-09-29
219 REQ/2023/9683 2023-09-26 REG/2023/3379 0000000458 SPA ENTERPRISE Accepted 2023-09-29
220 REQ/2023/9689 2023-09-26 REG/2023/3436 0000000461 UPWARDS ENGINEERING PRIVATE LIMITED Accepted 2023-10-05
221 REQ/2023/9891 2023-09-28 REG/2023/3501 0000000394 PIYALI CONSTRUCTION & GENERAL ORDER SUPPLIER Accepted 2023-10-05
222 REQ/2023/9914 2023-09-28 REG/2023/3503 0000000393 NAJMUL HAQUE Accepted 2023-10-05
223 REQ/2023/9960 2023-09-28 REG/2023/3506 0000000342 WATER TECH Accepted 2023-10-05
224 REQ/2023/10063 2023-09-29 REG/2023/2214 0000000168 S. D. ENTERPRISE Accepted 2023-09-29
225 REQ/2023/6706 2023-08-28 REG/2023/2553 REQUEST FOR AGENCY APPROVAL 0000000337 AUXILIARY TUBEWELL DRILLERS Accepted 2023-09-27
226 REQ/2024/694 2024-04-04 REG/2024/381 Please approve. UMA CONSTRUCTION Rejected 2024-04-04 wrong credentials
227 REQ/2023/10422 2023-10-03 REG/2023/3671 for Vendor Code 0000000466 ANUP PAUL Accepted 2023-11-06
228 REQ/2023/10471 2023-10-04 REG/2023/3690 Registration Purpose 0000000462 NEW MILLENNIUM ENGINEERS CO-OPERATIVE SOCIETY LTD. Accepted 2023-10-05
229 REQ/2023/10288 2023-09-30 REG/2023/3628 0000000473 A.G. ENTERPRISE Accepted 2023-12-13
230 REQ/2023/10693 2023-10-12 REG/2023/3065 FOR FURTHER PRUCIDINGS 0000000158 CHAKRBORTTI ENTERPRISE Accepted 2023-12-06
231 REQ/2024/276 2024-02-14 REG/2023/136 please accept Atindra Construction Private Limited Pending 2024-02-14
232 REQ/2024/27 2024-01-05 REG/2024/23 WE ARE THE MANUFACTURING COMPANY OF HDPE PIPES & HDPE WATER STORAGE TANK FOR WHICH WE WANT TO DO VENDOR REGISTRATION JAMSHEDPUR RESOURCES PVT LTD Pending 2024-01-05
233 REQ/2023/10263 2023-09-30 REG/2023/3622 0000000231 S.R ENTERPRISE Accepted 2023-12-13
234 REQ/2023/10919 2023-11-23 REG/2023/3305 please approve 0000000467 ASHIM ENTERPRISE Accepted 2023-12-13
235 REQ/2023/10493 2023-10-05 REG/2023/3695 Approve 0000000372 UNIVERSAL CONSTRUCTION Accepted 2023-10-05
236 REQ/2023/10876 2023-11-15 REG/2023/3857 REQUEST 0000000127 AZAD CONSTRUCTION Accepted 2023-12-29
237 REQ/2024/698 2024-04-04 REG/2024/381 Please approve. 0000000148 UMA CONSTRUCTION Accepted 2024-04-04
238 REQ/2023/10586 2023-10-09 REG/2023/3230 Approve 0000000210 Everest Consultant Services Accepted 2023-10-09
239 REQ/2023/10089 2023-09-29 REG/2023/3568 0000000054 LAB ANALYTICS Accepted 2023-12-13
240 REQ/2023/10253 2023-09-30 REG/2023/3620 0000000474 CIVILEX COMBINE Accepted 2023-12-13
241 REQ/2024/872 2024-04-08 REG/2024/475 Please approve. 0000000201 SAFE STEP ENTERPRISE Accepted 2024-04-08
242 REQ/2023/10380 2023-10-03 REG/2023/1841 Request for approval. 0000000343 ZEOLITE FRESH INDIA Accepted 2023-12-13
243 REQ/2024/92 2024-01-08 REG/2024/45 Approval for vendor code Sunny Electric co. Pending 2024-01-08
244 REQ/2023/10243 2023-09-30 REG/2023/3617 0000000475 SIMPLEX DRILLING COMPANY Accepted 2023-12-13
245 REQ/2023/10382 2023-10-03 REG/2023/3661 Kindly approved 0000000460 M/s Akalabya Enterprise Accepted 2023-10-03
246 REQ/2023/10642 2023-10-10 REG/2023/3756 Approval please. 0000000374 TIYAS CONSULTANCY AND INFRASTRUCTURE PRIVATE LIMITED Accepted 2023-12-13
247 REQ/2023/10630 2023-10-10 REG/2023/3276 Request for vendor code MADE & TRADE CO. Rejected 2023-12-13 same data
248 REQ/2023/10395 2023-10-03 REG/2023/2745 Working agency of various WBPHED office. 0000000463 SUJAN KUMAR MISTRY Accepted 2023-12-13
249 REQ/2024/308 2024-02-20 REG/2024/178 vendor code required G D Construction & Co Pending 2024-02-20
250 REQ/2023/10264 2023-09-30 REG/2023/3621 0000000471 NOVELTY ENTERPRISE Accepted 2023-12-13
251 REQ/2023/10566 2023-10-08 REG/2023/3728 Accpect 0000000470 LAXMI ENTERPRISE Accepted 2023-12-13
252 REQ/2023/10631 2023-10-10 REG/2023/3276 Request for vendor code 0000000357 MADE & TRADE CO. Accepted 2023-12-13
253 REQ/2024/564 2024-04-03 REG/2023/3022 Please Accept SIRCON ENGINEERING SERVICES Pending 2024-04-03
254 REQ/2024/102 2024-01-09 REG/2023/300 approved 0000000016 AMIT KUMAR BOSE Accepted 2024-01-09
255 REQ/2023/10593 2023-10-09 REG/2023/3736 PHED Working Agency 0000000469 GLAMOUR CONSTRUCTION Accepted 2023-12-13
256 REQ/2024/103 2024-01-09 REG/2023/300 approved AMIT KUMAR BOSE Pending 2024-01-09
257 REQ/2024/792 2024-04-05 REG/2023/2543 Request For Vendor Code G. B. CONSTRUCTION & CO. Pending 2024-04-05
258 REQ/2024/700 2024-04-04 REG/2024/382 I Ashok Karamakar is associated with this office to provide Income Tax and GST Related Consultancy. You are requested to kindly accept the request. ASHOK KARMAKAR Pending 2024-04-04
259 REQ/2024/669 2024-04-04 REG/2024/375 Working agency TAANISH CONSTRUCTION Pending 2024-04-04